Danbury, CT

8:21 AM EDT on July 22, 2017 (GMT -0400)
Danbury Municipal

Weather History for KDXR - July, 2013

Change the Weather History Date:

Wednesday, July 10, 2013

  Actual Average Record
Temperature  
Mean Temperature 77 °F -  
Max Temperature 84 °F 85 °F 103 °F (1993)
Min Temperature 72 °F 61 °F 47 °F (1953)
Cooling Degree Days 12    
Growing Degree Days 27 (Base 50)    
Moisture  
Dew Point 70 °F    
Average Humidity 77    
Maximum Humidity 93    
Minimum Humidity 67    
Precipitation  
Precipitation 0.27 in - - ()
Sea Level Pressure  
Sea Level Pressure 29.92 in    
Wind  
Wind Speed 4 mph (SSW)    
Max Wind Speed 14 mph    
Max Gust Speed 25 mph    
Visibility 6 miles    
Events Fog , Rain , Thunderstorm    
Averages and records for this station are not official NWS values.
T = Trace of Precipitation, MM = Missing Value Source: NWS Daily Summary

Daily Weather History Graph

Daily Weather History Graph

Search for Another Location

Airport or City:

Trip Planner

Search our weather history database for the weather conditions in past years. The results will help you decide how hot, cold, wet, or windy it might be!

Date:

Astronomy

Jul. 10, 2013 Rise Set
Actual Time 5:29 AM EDT 8:28 PM EDT
Civil Twilight 4:56 AM EDT 9:01 PM EDT
Nautical Twilight 4:14 AM EDT 9:43 PM EDT
Astronomical Twilight 3:25 AM EDT 10:32 PM EDT
Moon 7:50 AM EDT (7/10) 9:34 PM EDT (7/10)
Length of Visible Light 16h 04m
Length of Day
14h 58m
Waxing Crescent, 5% of the Moon is Illuminated
Jul 10
Waxing Crescent
Jul 15
First Quarter
Jul 22
Full
Jul 29
Last Quarter
Aug 6
New

Hourly Weather History & Observations

Time (EDT) Temp. Heat Index Dew Point Humidity Pressure Visibility Wind Dir Wind Speed Gust Speed Precip Events Conditions
12:53 AM 72.0 °F - 70.0 °F 93% 30.02 in 3.0 mi Calm Calm - N/A   Mostly Cloudy
1:53 AM 72.0 °F - 69.1 °F 91% 30.01 in 4.0 mi WSW 3.5 mph - N/A   Partly Cloudy
2:53 AM 72.0 °F - 69.1 °F 91% 29.99 in 5.0 mi Calm Calm - 0.00 in Rain Light Rain
3:53 AM 73.0 °F - 68.0 °F 84% 29.99 in 5.0 mi Calm Calm - 0.00 in   Haze
4:53 AM 73.0 °F - 68.0 °F 84% 29.98 in 5.0 mi Calm Calm - N/A   Haze
5:53 AM 73.9 °F - 68.0 °F 82% 29.99 in 5.0 mi Calm Calm - N/A   Haze
6:03 AM 73.4 °F - 68.0 °F 83% 30.00 in 5.0 mi Calm Calm - N/A   Haze
6:53 AM 73.9 °F - 68.0 °F 82% 29.98 in 5.0 mi Calm Calm - N/A   Haze
7:53 AM 75.9 °F - 70.0 °F 82% 29.97 in 5.0 mi ESE 4.6 mph - N/A   Haze
8:49 AM 78.8 °F - 71.6 °F 78% 29.98 in 6.0 mi SSW 5.8 mph - N/A   Haze
8:53 AM 79.0 °F - 71.1 °F 77% 29.97 in 6.0 mi South 8.1 mph - N/A   Haze
9:53 AM 79.0 °F - 71.1 °F 77% 29.95 in 5.0 mi SSE 6.9 mph - N/A   Haze
10:53 AM 80.1 °F 83.6 °F 71.1 °F 74% 29.94 in 5.0 mi SW 8.1 mph - N/A   Haze
11:53 AM 82.0 °F 86.3 °F 71.1 °F 69% 29.92 in 6.0 mi South 8.1 mph - N/A   Haze
12:10 PM 82.4 °F 87.2 °F 71.6 °F 70% 29.92 in 6.0 mi South 11.5 mph 16.1 mph 0.00 in Rain Light Rain
12:53 PM 82.0 °F 86.7 °F 72.0 °F 71% 29.89 in 5.0 mi South 8.1 mph - 0.00 in   Haze
1:04 PM 80.6 °F 84.6 °F 71.6 °F 74% 29.91 in 4.0 mi South 9.2 mph - N/A Rain , Thunderstorm Thunderstorms and Rain
1:06 PM 80.6 °F 84.6 °F 71.6 °F 74% 29.92 in 1.2 mi SSW 13.8 mph 20.7 mph N/A Rain , Thunderstorm Thunderstorms and Rain
1:13 PM 75.2 °F - 71.6 °F 89% 29.91 in 0.5 mi South 11.5 mph 25.3 mph N/A Fog , Rain , Thunderstorm Thunderstorms and Rain
1:18 PM 75.2 °F - 69.8 °F 83% 29.91 in 1.2 mi South 8.1 mph - N/A Rain , Thunderstorm Thunderstorms and Rain
1:20 PM 75.2 °F - 69.8 °F 83% 29.90 in 5.0 mi South 8.1 mph - N/A Rain , Thunderstorm Rain
1:53 PM 82.0 °F 87.9 °F 73.9 °F 76% 29.88 in 5.0 mi South 8.1 mph 17.3 mph N/A Rain , Thunderstorm Rain
2:08 PM 80.6 °F 85.4 °F 73.4 °F 79% 29.89 in 5.0 mi SSW 6.9 mph - 0.00 in   Haze
2:53 PM 80.1 °F 83.8 °F 72.0 °F 76% 29.86 in 6.0 mi SSW 12.7 mph - 0.00 in   Haze
3:53 PM 82.9 °F 88.8 °F 73.0 °F 72% 29.84 in 8.0 mi South 12.7 mph 18.4 mph N/A   Clear
4:53 PM 82.9 °F 87.5 °F 71.1 °F 67% 29.82 in 8.0 mi SW 10.4 mph - N/A   Scattered Clouds
5:53 PM 82.9 °F 87.5 °F 71.1 °F 67% 29.81 in 8.0 mi SW 6.9 mph - N/A   Mostly Cloudy
6:53 PM 82.0 °F 86.3 °F 71.1 °F 69% 29.83 in 9.0 mi SSW 4.6 mph - N/A   Scattered Clouds
7:53 PM 81.0 °F 84.4 °F 70.0 °F 69% 29.84 in 8.0 mi South 3.5 mph - N/A   Partly Cloudy
8:53 PM 80.1 °F 82.9 °F 69.1 °F 69% 29.84 in 10.0 mi SSW 6.9 mph - N/A   Clear
9:53 PM 79.0 °F - 68.0 °F 69% 29.86 in 10.0 mi SSW 6.9 mph - N/A   Clear
10:53 PM 78.1 °F - 68.0 °F 71% 29.85 in 10.0 mi SW 5.8 mph - N/A   Clear
11:53 PM 77.0 °F - 68.0 °F 74% 29.83 in 10.0 mi Calm Calm - N/A   Clear